Weather History for Kansas City International, MO

Change the Weather History Date:

Tuesday, January 15, 2013

  Actual Average Record
Temperature  
Mean Temperature 24 °F 28 °F  
Max Temperature 33 °F 38 °F 66 °F (2006)
Min Temperature 15 °F 19 °F -10 °F (1979)
Degree Days  
Heating Degree Days 41 36  
Month to date heating degree days 494 540  
Since 1 July heating degree days 2332 2582  
Cooling Degree Days 0 0  
Month to date cooling degree days 0 0  
Year to date cooling degree days 0 0  
Moisture  
Dew Point 8 °F    
Average Humidity 52    
Maximum Humidity 74    
Minimum Humidity 29    
Precipitation  
Precipitation 0.00 in 0.03 in 0.60 in (1889)
Month to date precipitation 0.25 0.46  
Year to date precipitation 0.25 0.46  
Snow  
Snow 0.00 in 0.20 in 4.30 in (1898)
Month to date snowfall T 2.1  
Since 1 July snowfall 3.7 8.3  
Snow Depth T in    
Sea Level Pressure  
Sea Level Pressure 30.32 in    
Wind  
Wind Speed 2 mph (SSE)    
Max Wind Speed 8 mph    
Max Gust Speed 13 mph    
Visibility 10 miles    
Events      
T = Trace of Precipitation, MM = Missing Value Source: NWS Daily Summary

Daily Weather History Graph

Daily Weather History Graph

Search for Another Location

Airport:

Trip Planner

Search our weather history database for the weather conditions in past years. The results will help you decide how hot, cold, wet, or windy it might be!

Date:

Astronomy

Jan. 15, 2013 Rise Set
Actual Time 7:36 AM CST 5:20 PM CST
Civil Twilight 7:07 AM CST 5:49 PM CST
Nautical Twilight 6:34 AM CST 6:22 PM CST
Astronomical Twilight 6:02 AM CST 6:54 PM CST
Moon 9:45 AM CST (1/15) 10:08 PM CST (1/15)
Length of Visible Light 10h 42m
Length of Day
9h 43m
Waxing Crescent, 19% of the Moon is Illuminated
Jan 15
Waxing Crescent
Jan 18
First Quarter
Jan 26
Full
Feb 3
Last Quarter
Feb 10
New

Hourly Weather History & Observations

Time (CST) Temp. Windchill Dew Point Humidity Pressure Visibility Wind Dir Wind Speed Gust Speed Precip Events Conditions
12:53 AM 19.9 °F - 8.1 °F 60% 30.42 in 10.0 mi Calm Calm - N/A   Scattered Clouds
1:53 AM 18.0 °F - 10.0 °F 71% 30.40 in 10.0 mi Calm Calm - N/A   Partly Cloudy
2:53 AM 17.1 °F - 7.0 °F 65% 30.39 in 10.0 mi Calm Calm - N/A   Scattered Clouds
3:53 AM 17.1 °F 11.7 °F 8.1 °F 68% 30.38 in 10.0 mi NE 3.5 mph - N/A   Mostly Cloudy
4:53 AM 17.1 °F - 9.0 °F 71% 30.38 in 10.0 mi Calm Calm - N/A   Scattered Clouds
5:53 AM 17.1 °F - 9.0 °F 71% 30.39 in 10.0 mi Calm Calm - N/A   Mostly Cloudy
6:53 AM 18.0 °F - 8.1 °F 65% 30.40 in 9.0 mi Calm Calm - N/A   Scattered Clouds
7:53 AM 18.0 °F - 10.9 °F 74% 30.40 in 10.0 mi Calm Calm - N/A   Mostly Cloudy
8:53 AM 19.9 °F 14.9 °F 10.9 °F 68% 30.39 in 10.0 mi East 3.5 mph - N/A   Mostly Cloudy
9:53 AM 21.9 °F - 10.0 °F 60% 30.39 in 10.0 mi Calm Calm - N/A   Mostly Cloudy
10:53 AM 26.1 °F 20.5 °F 10.0 °F 51% 30.39 in 10.0 mi East 4.6 mph - N/A   Scattered Clouds
11:53 AM 28.0 °F 24.2 °F 9.0 °F 45% 30.35 in 10.0 mi East 3.5 mph - N/A   Scattered Clouds
12:53 PM 30.0 °F - 9.0 °F 41% 30.31 in 10.0 mi Calm Calm - N/A   Partly Cloudy
1:53 PM 30.9 °F 27.5 °F 7.0 °F 37% 30.29 in 10.0 mi SW 3.5 mph - N/A   Clear
2:53 PM 32.0 °F - 6.1 °F 34% 30.28 in 10.0 mi Calm Calm - N/A   Partly Cloudy
3:53 PM 33.1 °F - 5.0 °F 31% 30.28 in 10.0 mi Calm Calm - N/A   Scattered Clouds
4:53 PM 30.9 °F - 5.0 °F 33% 30.27 in 10.0 mi Calm Calm - N/A   Partly Cloudy
5:53 PM 28.0 °F - 5.0 °F 38% 30.26 in 10.0 mi Calm Calm - N/A   Partly Cloudy
6:53 PM 26.1 °F 20.5 °F 7.0 °F 44% 30.26 in 10.0 mi SE 4.6 mph - N/A   Partly Cloudy
7:53 PM 21.0 °F 13.4 °F 8.1 °F 57% 30.25 in 10.0 mi SSE 5.8 mph - N/A   Clear
8:53 PM 21.0 °F 13.4 °F 8.1 °F 57% 30.24 in 10.0 mi South 5.8 mph - N/A   Clear
9:53 PM 18.0 °F 7.7 °F 8.1 °F 65% 30.21 in 10.0 mi South 8.1 mph - N/A   Clear
10:53 PM 19.0 °F 9.0 °F 8.1 °F 62% 30.21 in 10.0 mi SSW 8.1 mph - N/A   Clear
11:53 PM 18.0 °F 8.7 °F 9.0 °F 68% 30.19 in 10.0 mi SSW 6.9 mph - N/A   Clear